Vertical_Velocity
-12 -12 -11 -9 -10 -6 -7 -6 -3 -1 1 4 -0 0 -5 -6 -7 -3 -0 -2 1 0
-7 -8 -9 -7 -8 -6 -6 -6 -5 -3 -6 -1 2 3 2 -4 -5 -8 -3 1 0 1
-5 -4 -6 -7 -5 -6 -5 -6 -4 -2 -2 2 -3 1 1 3 6 -7 1 -6 -3 -2
-2 -3 -5 -7 -2 -3 -6 -3 -5 -4 -2 -3 0 3 -6 -1 6 -5 0 1 -4 -4
-2 -0 -5 -7 -3 -1 -5 2 -2 -3 -4 -3 -1 1 -4 -2 -1 -0 3 4 1 -4
-3 -4 -3 -3 -1 -1 -5 -0 -1 -5 -4 1 1 1 -2 -5 1 -4 1 6 -6 7
1 -3 -4 -3 -2 -3 1 -4 -1 0 -2 -3 -1 -3 -2 -3 -3 0 -4 4 -1 -4
-3 -1 -2 -3 -3 -4 -5 -1 -1 -3 1 -0 -6 -2 2 -0 -2 -4 -4 -3 -2 13
-4 -4 -2 -2 -3 -4 -3 -3 -3 -2 -5 -3 -5 3 0 2 -4 -2 -5 -9 -0 -1
-2 -5 -1 -2 -2 -1 -3 -3 -3 -4 -2 -2 -3 3 -0 2 -3 -3 -3 -4 -0 -11
-2 -4 -1 -3 -0 1 0 -2 -2 -2 -1 -6 2 0 -0 5 -2 -7 -3 -4 -2 -17
-1 -3 -2 -2 -0 3 -4 -0 1 -2 -2 -4 -1 1 3 3 -1 -8 -6 -3 4 -18
1 -1 -1 1 1 1 -2 -4 -3 -0 1 2 -3 2 2 1 -3 -7 -6 7 3 0
2 -2 2 2 2 3 2 1 1 -2 5 -4 -3 0 -1 -2 -6 -7 5 15 -11 -3
Height
3038 3033 3029 3025 3021 3018 3016 3015 3016 3018 3020 3022 3024 3025 3026 3028 3032 3036 3041 3044 3048 3050
3024 3019 3013 3009 3004 3000 2997 2994 2994 2996 2997 2999 3000 3003 3006 3008 3013 3017 3022 3027 3032 3036
3006 3002 2997 2992 2988 2985 2980 2977 2975 2974 2975 2977 2979 2981 2983 2987 2992 2996 3003 3008 3014 3018
2988 2984 2980 2976 2971 2967 2964 2961 2958 2956 2955 2956 2958 2962 2962 2965 2970 2974 2980 2989 2994 3001
2973 2967 2962 2958 2954 2951 2947 2945 2941 2939 2938 2938 2939 2941 2943 2946 2950 2954 2959 2968 2976 2983
2957 2951 2946 2942 2938 2934 2930 2928 2926 2924 2922 2921 2922 2922 2926 2928 2932 2935 2940 2947 2958 2965
2943 2936 2929 2924 2920 2916 2913 2910 2908 2907 2906 2906 2905 2906 2908 2911 2914 2918 2922 2927 2935 2946
2927 2921 2914 2908 2903 2898 2894 2891 2889 2887 2887 2888 2889 2890 2891 2894 2898 2901 2904 2908 2914 2925
2913 2905 2898 2891 2885 2880 2876 2873 2870 2869 2868 2869 2871 2874 2875 2878 2882 2886 2888 2892 2897 2908
2898 2889 2882 2875 2869 2863 2859 2855 2852 2852 2851 2852 2854 2857 2860 2865 2867 2871 2874 2877 2882 2892
2886 2877 2870 2862 2856 2850 2846 2841 2838 2837 2837 2837 2839 2843 2848 2852 2855 2858 2861 2865 2871 2882
2876 2866 2858 2851 2845 2840 2834 2830 2827 2825 2825 2826 2829 2832 2836 2841 2843 2846 2850 2857 2864 2876
2864 2855 2847 2840 2835 2830 2825 2820 2817 2816 2816 2817 2818 2822 2826 2830 2831 2833 2840 2847 2856 2867
2855 2846 2837 2830 2824 2818 2813 2809 2806 2805 2806 2806 2808 2812 2815 2819 2820 2825 2831 2840 2852 2861